Printer-friendly version

IAU Minor Planet Center

Minor Planet Center

MPEC 2005-B43 : COMET C/2004 X2 (LINEAR)

The following Minor Planet Electronic Circular may be linked-to from your own Web pages, but must not otherwise be redistributed electronically.


Read MPEC 2005-B42 Read MPEC 2005-B44


M.P.E.C. 2005-B43                                Issued 2005 Jan. 21, 23:06 UT

     The Minor Planet Electronic Circulars contain information on unusual
         minor planets and routine data on comets.  They are published
   on behalf of Commission 20 of the International Astronomical Union by the
          Minor Planet Center, Smithsonian Astrophysical Observatory,
                          Cambridge, MA 02138, U.S.A.

                  Supported in part by the Brinson Foundation
             Prepared using the Tamkin Foundation Computer Network

                              MPC@CFA.HARVARD.EDU
          URL http://cfa-www.harvard.edu/iau/mpc.html  ISSN 1523-6714

                           COMET C/2004 X2 (LINEAR)

Observations:
    CK04X020  C2005 01 06.71499 09 06 19.40 +07 43 51.5          17.2 T EB043D74
    CK04X020  C2005 01 06.75397 09 06 16.83 +07 43 28.3          17.1 T EB043D74
    CK04X020  C2005 01 14.97879 08 56 51.25 +06 27 27.3          18.1 N EB043213
    CK04X020  C2005 01 14.98070 08 56 51.06 +06 27 26.7          18.1 N EB043213
    CK04X020  C2005 01 14.98262 08 56 50.94 +06 27 25.3          18.1 N EB043213
    CK04X020  C2005 01 15.31568 08 56 27.25 +06 24 26.6          17.7 T EB043699
    CK04X020  C2005 01 15.33512 08 56 25.80 +06 24 15.5                 EB043699
    CK04X020  C2005 01 15.35458 08 56 24.42 +06 24 05.8                 EB043699
    CK04X020  C2005 01 15.37405 08 56 23.02 +06 23 55.4                 EB043699
    CK04X020  C2005 01 19.93731 08 50 54.12 +05 43 37.6                 EB043213
    CK04X020  C2005 01 19.94806 08 50 53.38 +05 43 32.6                 EB043213
    CK04X020  C2005 01 19.97425 08 50 51.45 +05 43 16.1          17.0 N EB043A61
    CK04X020  C2005 01 19.98092 08 50 50.96 +05 43 14.5          17.1 N EB043A61
    CK04X020  C2005 01 19.98760 08 50 50.53 +05 43 11.5          17.0 N EB043A61

Observer details:
213 Observatorio Montcabre.  Observer R. Naves.  Measurer M. Campas.  0.30-m
    f/6.6 Schmidt-Cassegrain + CCD.
699 Lowell Observatory-LONEOS.  Observer M. E. Van Ness.  0.59-m LONEOS
    Schmidt + CCD.
A61 Tortona.  Observers F. Fratev, E. Mihaylova.  Measurer F. Fratev.  0.25-m
    f/4.7 reflector + CCD.
D74 Nakagawa.  Observers H. Hori, H. Maeno.  1.13-m f/6.75 reflector + CCD.

Orbital elements:
    C/2004 X2 (LINEAR)
Epoch 2004 Aug. 23.0 TT = JDT 2453240.5
T 2004 Aug. 24.09073 TT                                 MPC
q   3.7919100            (2000.0)            P               Q
z  +0.0008616      Peri.  162.16606     -0.50255959     -0.41829281
 +/-0.0000296      Node   307.33806     +0.63084194     +0.42099734
e   0.9967328      Incl.   72.10687     +0.59116183     -0.80485549
Residuals in seconds of arc
041119 699  0.7+  0.8-    041212 246  0.3+  0.3+    050104 A61  0.3+  0.0
041119 699  1.1-  0.1-    041212 246  0.2+  0.2+    050104 A61  0.3+  0.0
041119 699  0.1-  0.6-    041212 246  0.5+  0.4+    050104 A61  0.4+  0.1-
041119 699  0.3-  1.1+    041212 246  0.5+  0.5+    050104 411  0.2-  0.5-
041208 704  0.3+  0.6+    041212 204  0.1-  0.1+    050104 411  0.3+  0.4+
041208 704  0.2+  0.3+    041212 204  0.4-  0.1+    050104 411  0.0   0.3-
041208 704  0.3-  0.2+    041212 A61 (1.2+  2.5-)   050104 411  0.3+  0.1-
041208 704  0.1-  0.5+    041212 A61  0.0   0.6-    050104 215  0.5+  0.2+
041209 704  0.4+  1.3-    041212 A61  0.5-  1.7-    050104 215  0.3+  0.4+
041209 704  0.5+  0.4-    041213 699  0.2-  1.0+    050105 A61  0.1-  0.2-
041209 704  0.3+  0.1-    041213 699  0.6-  0.1+    050105 A61 (2.3-  0.6-)
041209 704  0.2-  0.4+    041213 699  0.4-  0.5+    050105 A61  0.1-  0.1+
041209 704  0.4-  0.9-    041213 699  0.7-  0.5+    050105 204  0.2-  0.1+
041209 693  0.5+  0.3-    041213 372  0.0   0.1+    050105 204  0.3-  0.3-
041209 693  0.9+  0.7-    041213 372 (2.4-  0.5-)   050105 204  0.5+  0.0
041209 693  1.3+  0.9-    041214 704  0.8+  0.0     050106 349  0.2-  0.1-
041209 693  0.7+  0.5-    041214 704  0.2+  0.1+    050106 349  0.1-  0.2-
041210 246  0.1-  0.2-    041214 704  0.7+  0.7+    050106 349  0.0   0.4-
041210 246  0.4-  0.0     041214 704  0.3+  0.1-    050106 D74  0.2+  0.1+
041210 246  0.4-  0.1+    041214 704  0.1+  0.1-    050106 D74  0.8+  1.0-
041210 246  0.6-  0.2+    041214 704  0.7+  0.3+    050107 703 (2.8-  2.4+)
041210 246  0.1-  0.3+    041214 704  0.1-  0.7+    050107 703 (1.9-  2.5+)
041210 246  0.4-  0.3+    041214 704  0.2+  0.4+    050107 703 (2.0-  2.1+)
041210 246  0.2-  0.0     041214 704  0.2+  0.4+    050107 703  1.3-  2.0+
041210 854  0.0   0.2-    041214 704  0.2+  0.2+    050109 213  0.6+  0.7-
041210 854  0.3-  0.2+    041215 372  1.8-  0.5-    050109 213  0.5+  0.7-
041210 704  0.5+  0.3-    041215 213  0.3-  1.0+    050109 213  0.2+  0.8-
041210 704  0.7+  0.1+    041215 213  0.4-  0.9+    050110 138  0.9-  0.8+
041210 704  0.4+  0.2-    041215 213  0.3-  0.8+    050110 118  0.3+  0.3-
041210 704  0.4+  0.4-    041216 360  0.5-  0.1-    050110 118  0.1+  0.1-
041210 704  0.4+  0.5-    041216 360  0.2-  0.3-    050110 118  0.2+  0.2-
041210 704  0.2+  0.4-    041216 360  0.2-  0.2-    050110 138  1.1-  0.6+
041210 704  0.2+  0.6-    041217 372  1.4-  0.1-    050111 561  0.6+  0.4-
041210 704  0.9-  0.5+    041218 704  0.4+  0.6-    050111 561  0.4+  0.2-
041210 704  0.1-  0.1+    041218 704  0.3+  0.6-    050111 561  1.3+  0.9-
041210 704  0.5+  0.0     041218 704  0.1-  0.1-    050111 A41  0.5-  0.5-
041210 D74  0.2+  0.0     041218 704  0.2-  0.2+    050112 A41  0.5-  0.2-
041210 D74  0.1-  0.5+    041218 704  0.1+  0.3-    050112 A41  0.8-  0.5-
041210 D74  0.2+  0.3+    041218 349  0.6-  0.3+    050114 213  0.9+  0.2-
041210 349  0.6-  0.6+    041218 349  0.5-  0.4+    050114 213  0.1+  0.2+
041210 349  0.4-  0.6+    041218 349  0.4-  0.6+    050114 213  0.4+  0.1-
041210 349  0.0   0.4+    041219 A61  0.7-  0.3-    050115 699  0.7+  0.6+
041211 170  0.2+  0.4-    041219 A61  0.7+  1.0-    050115 699  0.0   0.0
041211 170  0.3+  0.3-    041219 A61  0.9-  0.2+    050115 699  0.4+  0.8+
041211 170  0.2+  0.6-    050101 J76  0.5+  0.4+    050115 699  0.5+  0.9+
041211 170  0.2+  0.0     050101 J76  0.7+  0.2-    050119 213  1.0-  0.5+
041211 704  0.2+  0.0     050101 J76  0.7+  0.4-    050119 213  0.3-  1.0+
041211 704 (2.7+  0.7-)   050102 213  0.1-  0.2+    050119 A61  0.1-  1.7-
041211 704  0.2+  0.1-    050102 213  0.4-  0.1+    050119 A61  0.0   0.1+
041211 704  0.2+  0.6+    050102 213  0.6-  0.1-    050119 A61  0.9+  0.6+
041211 704  1.1-  0.5+    050102 349  0.8-  0.0
041212 246  0.1+  0.5+    050102 349  0.6-  0.2+

     The "original" and "future" barycentric values of 1/a are +0.001268
and +0.001529 (+/- 0.000030) AU^-1, respectively.

Brian G. Marsden             (C) Copyright 2005 MPC           M.P.E.C. 2005-B43

Read MPEC 2005-B42 Read MPEC 2005-B44


Our Web policy. Index to the CBAT/MPC/ICQ pages.


Valid HTML 4.01!